When you browse on this site, cookies collect data to enhance your experience and personalize the content and advertising you see.
Visit our Privacy Policy to learn more. By continuing to use the site, you agree to this use of cookies and data.
  • In Romania
  • List of Countries
  • For 7 days
  • Water Temperature
  • Satellite Maps
  • Weather Map
  • Weather Widgets
  • user-avatar
    Login

    Hourly Weather Da Nang

    Today, 18 December, Tuesday

    Time Temperature Precipitation Wind Pressure Humidity
    00:00 +22°C° 0.3 mm 3 mps 763 mmHg 97%
    01:00 +22°C° 0 mm 3 mps 762 mmHg 97%
    02:00 +22°C° 0.4 mm 3 mps 762 mmHg 97%
    03:00 +22°C° 0.4 mm 3 mps 762 mmHg 97%
    04:00 +22°C° 0.4 mm 3 mps 762 mmHg 97%
    05:00 +22°C° 0.4 mm 3 mps 762 mmHg 97%
    06:00 +22°C° 0.4 mm 3 mps 762 mmHg 97%
    07:00 +21°C° 0 mm 2 mps 763 mmHg 94%
    08:00 +21°C° 0.2 mm 2 mps 763 mmHg 93%
    09:00 +23°C° 0.2 mm 2 mps 763 mmHg 92%
    10:00 +23°C° 0.2 mm 2 mps 763 mmHg 91%
    11:00 +25°C° 0.1 mm 2 mps 762 mmHg 87%
    12:00 +26°C° 0.1 mm 2 mps 762 mmHg 82%
    13:00 +27°C° 0.1 mm 2 mps 761 mmHg 78%
    14:00 +27°C° 0.1 mm 2 mps 761 mmHg 81%
    15:00 +26°C° 0.1 mm 2 mps 761 mmHg 84%
    16:00 +25°C° 0.1 mm 2 mps 760 mmHg 88%
    17:00 +25°C° 0.1 mm 2 mps 761 mmHg 90%
    18:00 +24°C° 0.1 mm 2 mps 761 mmHg 93%
    19:00 +23°C° 0.1 mm 2 mps 761 mmHg 95%
    20:00 +23°C° 0.1 mm 2 mps 761 mmHg 96%
    21:00 +23°C° 0.1 mm 2 mps 762 mmHg 96%
    22:00 +23°C° 0.1 mm 2 mps 762 mmHg 96%
    23:00 +23°C° 0.3 mm 2 mps 762 mmHg 96%

    Tomorrow, 19 December, Wednesday

    Time Temperature Precipitation Wind Pressure Humidity
    00:00 +23°C° 0.3 mm 2 mps 761 mmHg 97%
    01:00 +23°C° 0.3 mm 2 mps 761 mmHg 97%
    02:00 +23°C° 0.5 mm 2 mps 761 mmHg 97%
    03:00 +23°C° 0.5 mm 2 mps 761 mmHg 97%
    04:00 +23°C° 0.5 mm 2 mps 761 mmHg 96%
    05:00 +23°C° 0.3 mm 2 mps 761 mmHg 96%
    06:00 +23°C° 0.3 mm 2 mps 761 mmHg 96%
    07:00 +23°C° 0.3 mm 2 mps 762 mmHg 96%
    08:00 +24°C° 0.2 mm 2 mps 762 mmHg 92%
    09:00 +26°C° 0.2 mm 2 mps 762 mmHg 87%
    10:00 +27°C° 0.2 mm 2 mps 762 mmHg 83%
    11:00 +28°C° 0 mm 2 mps 761 mmHg 80%
    12:00 +29°C° 0 mm 1 mps 760 mmHg 76%
    13:00 +30°C° 0 mm 1 mps 760 mmHg 72%
    14:00 +30°C° 0 mm 1 mps 759 mmHg 73%
    15:00 +30°C° 0 mm 1 mps 759 mmHg 74%
    16:00 +29°C° 0 mm 2 mps 758 mmHg 75%
    17:00 +28°C° 0 mm 2 mps 759 mmHg 82%
    18:00 +26°C° 0 mm 2 mps 759 mmHg 90%
    19:00 +25°C° 0 mm 2 mps 760 mmHg 97%
    20:00 +25°C° 0 mm 1 mps 760 mmHg 97%
    21:00 +25°C° 0 mm 1 mps 760 mmHg 97%
    22:00 +25°C° 0 mm 1 mps 761 mmHg 97%
    23:00 +25°C° 0 mm 1 mps 760 mmHg 97%

    Day after tomorrow, 20 December, Thursday

    Time Temperature Precipitation Wind Pressure Humidity
    00:00 +24°C° 0 mm 1 mps 760 mmHg 97%
    01:00 +24°C° 0 mm 1 mps 760 mmHg 97%
    02:00 +24°C° 0 mm 1 mps 760 mmHg 98%
    03:00 +24°C° 0 mm 1 mps 760 mmHg 98%
    04:00 +24°C° 0 mm 1 mps 759 mmHg 98%
    05:00 +24°C° 0 mm 1 mps 760 mmHg 97%
    06:00 +24°C° 0 mm 2 mps 760 mmHg 96%
    07:00 +24°C° 0 mm 2 mps 760 mmHg 95%
    08:00 +26°C° 0 mm 2 mps 760 mmHg 86%
    09:00 +29°C° 0 mm 2 mps 760 mmHg 77%
    10:00 +31°C° 0 mm 2 mps 760 mmHg 68%
    11:00 +32°C° 0 mm 2 mps 759 mmHg 65%
    12:00 +34°C° 0 mm 2 mps 758 mmHg 62%
    13:00 +34°C° 0 mm 2 mps 757 mmHg 59%
    14:00 +32°C° 0 mm 2 mps 757 mmHg 65%
    15:00 +31°C° 0 mm 3 mps 756 mmHg 71%
    16:00 +30°C° 0 mm 3 mps 756 mmHg 77%
    17:00 +29°C° 0 mm 3 mps 757 mmHg 84%
    18:00 +27°C° 0 mm 2 mps 757 mmHg 91%
    19:00 +26°C° 0 mm 2 mps 758 mmHg 97%
    20:00 +26°C° 0 mm 2 mps 758 mmHg 97%
    21:00 +26°C° 0 mm 2 mps 759 mmHg 97%
    22:00 +26°C° 0 mm 3 mps 759 mmHg 96%
    23:00 +26°C° 0 mm 3 mps 759 mmHg 96%

    21 December, Friday

    Time Temperature Precipitation Wind Pressure Humidity
    00:00 +26°C° 0 mm 3 mps 758 mmHg 96%
    01:00 +26°C° 0 mm 3 mps 758 mmHg 96%
    02:00 +25°C° 0 mm 2 mps 758 mmHg 97%
    03:00 +25°C° 0 mm 2 mps 758 mmHg 97%
    04:00 +25°C° 0 mm 2 mps 757 mmHg 98%
    05:00 +25°C° 0 mm 2 mps 758 mmHg 97%
    06:00 +25°C° 0 mm 2 mps 758 mmHg 97%
    07:00 +25°C° 0 mm 2 mps 758 mmHg 96%
    08:00 +27°C° 0 mm 2 mps 759 mmHg 88%
    09:00 +29°C° 0 mm 2 mps 759 mmHg 79%
    10:00 +31°C° 0 mm 2 mps 759 mmHg 71%
    11:00 +31°C° 0 mm 2 mps 758 mmHg 70%
    12:00 +31°C° 0 mm 2 mps 758 mmHg 70%
    13:00 +33°C° 0 mm 3 mps 757 mmHg 69%
    14:00 +31°C° 0 mm 3 mps 757 mmHg 74%
    15:00 +30°C° 0 mm 3 mps 756 mmHg 79%
    16:00 +29°C° 0 mm 3 mps 756 mmHg 85%
    17:00 +28°C° 0 mm 3 mps 757 mmHg 88%
    18:00 +27°C° 0 mm 3 mps 758 mmHg 92%
    19:00 +26°C° 0 mm 3 mps 758 mmHg 95%
    20:00 +26°C° 0.1 mm 2 mps 759 mmHg 95%
    21:00 +26°C° 0.1 mm 2 mps 759 mmHg 96%
    22:00 +26°C° 0.1 mm 2 mps 759 mmHg 96%
    23:00 +25°C° 0 mm 2 mps 759 mmHg 96%

    22 December, Saturday

    Time Temperature Precipitation Wind Pressure Humidity
    00:00 +25°C° 0 mm 2 mps 759 mmHg 97%
    01:00 +25°C° 0 mm 2 mps 758 mmHg 97%
    02:00 +25°C° 0 mm 1 mps 758 mmHg 97%
    03:00 +25°C° 0 mm 1 mps 758 mmHg 97%
    04:00 +24°C° 0 mm 1 mps 757 mmHg 97%
    05:00 +24°C° 0 mm 1 mps 758 mmHg 97%
    06:00 +24°C° 0 mm 1 mps 758 mmHg 97%
    07:00 +24°C° 0 mm 1 mps 759 mmHg 96%
    08:00 +25°C° 0 mm 1 mps 759 mmHg 91%
    09:00 +27°C° 0 mm 1 mps 759 mmHg 86%
    10:00 +28°C° 0 mm 1 mps 759 mmHg 81%
    11:00 +29°C° 0.1 mm 2 mps 759 mmHg 77%
    12:00 +29°C° 0.1 mm 2 mps 758 mmHg 73%
    13:00 +30°C° 0.1 mm 2 mps 757 mmHg 70%
    14:00 +29°C° 0.2 mm 2 mps 757 mmHg 76%
    15:00 +29°C° 0.2 mm 3 mps 757 mmHg 81%
    16:00 +28°C° 0.2 mm 3 mps 757 mmHg 87%
    17:00 +27°C° 0.2 mm 3 mps 757 mmHg 90%
    18:00 +26°C° 0.2 mm 3 mps 758 mmHg 93%
    19:00 +25°C° 0.2 mm 3 mps 759 mmHg 96%
    20:00 +25°C° 0.3 mm 3 mps 759 mmHg 96%
    21:00 +25°C° 0.3 mm 3 mps 759 mmHg 96%
    22:00 +25°C° 0.3 mm 3 mps 759 mmHg 96%
    23:00 +25°C° 0.7 mm 3 mps 759 mmHg 97%

    23 December, Sunday

    Time Temperature Precipitation Wind Pressure Humidity
    00:00 +25°C° 0.7 mm 3 mps 758 mmHg 97%
    01:00 +25°C° 0.7 mm 4 mps 758 mmHg 97%
    02:00 +25°C° 1.4 mm 4 mps 758 mmHg 97%
    03:00 +25°C° 1.4 mm 4 mps 758 mmHg 97%
    04:00 +25°C° 1.4 mm 4 mps 757 mmHg 97%
    05:00 +25°C° 1.6 mm 4 mps 758 mmHg 97%
    06:00 +25°C° 1.6 mm 4 mps 758 mmHg 97%
    07:00 +25°C° 1.6 mm 4 mps 758 mmHg 97%
    08:00 +25°C° 1.9 mm 4 mps 758 mmHg 97%
    09:00 +25°C° 1.9 mm 4 mps 759 mmHg 97%
    10:00 +26°C° 1.9 mm 3 mps 759 mmHg 97%
    11:00 +26°C° 2.1 mm 3 mps 758 mmHg 97%
    12:00 +26°C° 2.1 mm 3 mps 757 mmHg 97%
    13:00 +26°C° 2.1 mm 3 mps 757 mmHg 97%
    14:00 +26°C° 1.6 mm 3 mps 756 mmHg 97%
    15:00 +25°C° 1.6 mm 3 mps 756 mmHg 97%
    16:00 +25°C° 1.6 mm 3 mps 756 mmHg 97%
    17:00 +25°C° 1.3 mm 3 mps 756 mmHg 97%
    18:00 +25°C° 1.3 mm 3 mps 757 mmHg 97%
    19:00 +25°C° 1.3 mm 3 mps 757 mmHg 97%
    20:00 +25°C° 2 mm 3 mps 757 mmHg 98%
    21:00 +25°C° 2 mm 4 mps 757 mmHg 98%
    22:00 +25°C° 2 mm 4 mps 757 mmHg 98%
    23:00 +25°C° 3 mm 4 mps 757 mmHg 98%
    Show more